Flag for Netherlands Weather past 2 weeks in Dordrecht, Netherlands

Now
72 °F

Scattered clouds.


Feels Like: 77 °F
Forecast: 59 / 78 °F
Wind: 14 mph from Southwest

Location: Rotterdam Zestienhoven Airport

Current Time: Jul 6, 2015 at 2:21:15 PM

Latest Report: Jul 6, 2015 at 1:55 PM


Visibility: N/A

Pressure: 30.12 "Hg

Humidity: 53%

Dew point: 54 °F

Location of DordrechtLocation

Historic Weather in Dordrecht — Graph

°F

Dordrecht temperature yesterday

Maximum temperature yesterday: 81 °F (at 12:25 PM)
Minimum temperature yesterday: 61 °F (at 11:55 PM)
Average temperature yesterday: 68 °F

Past Weeks' High & Low Weather Summary

 TemperatureHumidityPressure
High93 °F (Jul 1, 4:25 PM)100% (Jun 26, 3:55 AM)30.27 "Hg (Jun 26, 3:55 AM)
Low50 °F (Jun 23, 3:55 AM)28% (Jul 1, 5:25 PM)29.71 "Hg (Jun 22, 5:25 PM)
Average67 °F72%30.06 "Hg
* Reported Jun 21 12:25 PM — Jul 6 12:55 PM, Dordrecht, Weather by CustomWeather, © 2015

Note: Actual official high and low records may vary slightly from our data, if they occured in-between our weather recording intervals... More about our weather records

Advertising

Dordrecht weather history for previous 24 hours

 ConditionsComfort  
Time TempWeatherWind HumidityBarometerVisibility
12:55 PM
Mon, Jul 6
66 °FCloudy.14 mph64%30.15 "HgN/A
12:25 PM66 °FScattered clouds.14 mph64%30.15 "HgN/A
11:55 AM66 °FPassing clouds.15 mph64%30.15 "HgN/A
11:25 AM66 °FScattered clouds.13 mph68%30.15 "HgN/A
10:55 AM68 °FScattered clouds.12 mph69%30.12 "HgN/A
10:25 AM66 °FPassing clouds.14 mph68%30.15 "HgN/A
9:55 AM66 °FPassing clouds.10 mph73%30.12 "HgN/A
9:25 AM66 °FClear.10 mph78%30.12 "HgN/A
8:55 AM64 °FPartly sunny.10 mph78%30.12 "HgN/A
8:25 AM64 °FBroken clouds.10 mph83%30.12 "HgN/A
7:55 AM63 °FScattered clouds.8 mph83%30.12 "HgN/A
7:25 AM63 °FClear.10 mph88%30.12 "HgN/A
6:55 AM61 °FCool.8 mph94%30.12 "HgN/A
6:25 AM61 °FPartly cloudy.10 mph94%30.12 "HgN/A
5:55 AM59 °FCool.8 mph94%30.09 "HgN/A
5:25 AM59 °FClear.7 mph94%30.09 "HgN/A
4:55 AM59 °FCool.8 mph94%30.09 "HgN/A
4:25 AM59 °FCool.8 mph94%30.09 "HgN/A
3:55 AM59 °FCool.8 mph94%30.09 "HgN/A
3:25 AM59 °FCool.8 mph94%30.09 "HgN/A
2:55 AM61 °FCool.9 mph88%30.07 "HgN/A
2:25 AM61 °FCool.10 mph88%30.07 "HgN/A
1:55 AM61 °FCool.10 mph88%30.07 "HgN/A
1:25 AM63 °FMild.13 mph83%30.07 "HgN/A
12:55 AM63 °FMild.10 mph83%30.07 "HgN/A
12:25 AM61 °FCool.13 mph88%30.04 "HgN/A
11:55 PM
Sun, Jul 5
61 °FCool.13 mph88%30.04 "HgN/A
11:25 PM63 °FClear.13 mph83%30.04 "HgN/A
10:55 PM63 °FMild.14 mph88%30.04 "HgN/A
10:25 PM63 °FClear.13 mph88%30.01 "HgN/A
9:55 PM64 °FClear.13 mph83%30.01 "HgN/A
9:25 PM64 °FClear.14 mph83%29.98 "HgN/A
8:55 PM64 °FScattered clouds.15 mph78%30.01 "HgN/A
8:25 PM66 °FPartly sunny.14 mph73%30.01 "HgN/A
7:55 PM68 °FScattered clouds.15 mph69%30.01 "HgN/A
7:25 PM68 °FMild.16 mph69%29.98 "HgN/A
6:55 PM68 °FPassing clouds.13 mph78%29.98 "HgN/A
6:25 PM68 °FPassing clouds.6 mph83%29.95 "HgN/A
5:55 PM66 °FPassing clouds.3 mph83%29.98 "HgN/A
5:25 PM63 °FPassing clouds.5 mph94%29.98 "HgN/A
4:55 PM63 °FThunderstorms. Broken clouds.6 mph94%30.01 "Hg4 mi
4:25 PM63 °FStrong thunderstorms. Scattered clouds.13 mph88%30.07 "HgN/A
3:55 PM64 °FMostly cloudy.17 mph88%30.04 "HgN/A
3:25 PM64 °FOvercast.16 mph83%30.01 "HgN/A
2:55 PM64 °FLight rain. Partly sunny.18 mph83%30.04 "HgN/A
2:25 PM72 °FClear.16 mph69%29.98 "HgN/A
Weather by CustomWeather, © 2015

See weather overviewHow to use our weather pages